Time,TemperatureF,DewpointF,PressureIn,WindDirection,WindDirectionDegrees,WindSpeedMPH,WindSpeedGustMPH,Humidity,HourlyPrecipIn,Conditions,Clouds,dailyrainin,SolarRadiationWatts/m^2,SoftwareType,DateUTC
2013-08-19 00:01:00,77.0,76.1,30.07,NE,48,0.0,0.0,97,0.00,,,0.01,0.0,meteohub,2013-08-19 04:01:00,
2013-08-19 00:06:00,77.0,76.1,30.07,NE,48,0.0,0.0,97,0.00,,,0.00,0.0,meteohub,2013-08-19 04:06:00,
2013-08-19 00:11:00,76.8,75.9,30.07,NE,48,0.0,0.0,97,0.00,,,0.00,0.0,meteohub,2013-08-19 04:11:00,
2013-08-19 00:16:00,76.8,75.9,30.07,NE,48,0.0,0.0,97,0.00,,,0.00,0.0,meteohub,2013-08-19 04:16:00,
2013-08-19 00:21:00,76.8,75.9,30.07,NE,48,0.0,0.0,97,0.00,,,0.00,0.0,meteohub,2013-08-19 04:21:00,
2013-08-19 00:26:00,76.8,75.9,30.07,NE,48,0.0,0.0,97,0.00,,,0.00,0.0,meteohub,2013-08-19 04:26:00,
2013-08-19 00:31:00,76.8,75.9,30.07,NE,48,0.0,0.0,97,0.00,,,0.00,0.0,meteohub,2013-08-19 04:31:00,
2013-08-19 00:36:00,77.0,76.1,30.07,NE,48,0.0,0.0,97,0.00,,,0.00,0.0,meteohub,2013-08-19 04:36:00,
2013-08-19 00:41:00,77.0,76.1,30.08,NE,48,0.0,0.0,97,0.00,,,0.00,0.0,meteohub,2013-08-19 04:41:00,
2013-08-19 00:46:00,76.8,75.9,30.08,NE,48,0.0,0.0,97,0.00,,,0.00,0.0,meteohub,2013-08-19 04:46:00,
2013-08-19 00:51:00,76.8,75.9,30.08,NE,48,0.0,0.0,97,0.00,,,0.00,0.0,meteohub,2013-08-19 04:51:00,
2013-08-19 00:56:00,76.8,75.9,30.08,NE,48,0.0,0.0,97,0.00,,,0.00,0.0,meteohub,2013-08-19 04:56:00,
2013-08-19 01:01:00,76.8,75.9,30.08,NE,48,0.0,0.0,97,0.00,,,0.00,0.0,meteohub,2013-08-19 05:01:00,
2013-08-19 01:06:00,76.6,75.7,30.07,NE,48,0.0,0.0,97,0.00,,,0.00,0.0,meteohub,2013-08-19 05:06:00,
2013-08-19 01:11:00,76.6,75.7,30.07,NE,48,0.0,0.0,97,0.00,,,0.00,0.0,meteohub,2013-08-19 05:11:00,
2013-08-19 01:16:00,76.6,75.7,30.07,NE,48,0.0,0.0,97,0.00,,,0.00,0.0,meteohub,2013-08-19 05:16:00,
2013-08-19 01:21:00,76.5,75.6,30.06,NE,48,0.0,0.0,97,0.00,,,0.00,0.0,meteohub,2013-08-19 05:21:00,
2013-08-19 01:26:00,76.3,75.4,30.06,NE,48,0.0,0.0,97,0.00,,,0.00,0.0,meteohub,2013-08-19 05:26:00,
2013-08-19 01:31:00,76.3,75.4,30.06,NE,48,0.0,0.0,97,0.00,,,0.00,0.0,meteohub,2013-08-19 05:31:00,
2013-08-19 01:36:00,76.1,75.2,30.06,NE,48,0.0,0.0,97,0.00,,,0.00,0.0,meteohub,2013-08-19 05:36:00,
2013-08-19 01:41:00,76.3,75.4,30.06,NE,48,0.0,0.0,97,0.00,,,0.00,0.0,meteohub,2013-08-19 05:41:00,
2013-08-19 01:46:00,76.5,75.6,30.05,NE,48,0.0,0.0,97,0.00,,,0.00,0.0,meteohub,2013-08-19 05:46:00,
2013-08-19 01:51:00,76.3,75.4,30.05,NE,48,0.0,0.0,97,0.00,,,0.00,0.0,meteohub,2013-08-19 05:51:00,
2013-08-19 01:56:00,76.3,75.4,30.05,NE,48,0.0,0.0,97,0.00,,,0.00,0.0,meteohub,2013-08-19 05:56:00,
2013-08-19 02:01:00,76.3,75.4,30.05,NE,48,0.0,0.0,97,0.00,,,0.00,0.0,meteohub,2013-08-19 06:01:00,
2013-08-19 02:06:00,76.1,75.2,30.05,NE,48,0.0,0.0,97,0.00,,,0.00,0.0,meteohub,2013-08-19 06:06:00,
2013-08-19 02:11:00,75.9,75.0,30.05,NE,48,0.0,0.0,97,0.00,,,0.00,0.0,meteohub,2013-08-19 06:11:00,
2013-08-19 02:16:00,75.9,75.0,30.05,NE,48,0.0,0.0,97,0.00,,,0.00,0.0,meteohub,2013-08-19 06:16:00,
2013-08-19 02:21:00,75.7,75.2,30.05,NE,48,0.0,0.0,98,0.00,,,0.00,0.0,meteohub,2013-08-19 06:21:00,
2013-08-19 02:26:00,75.9,75.4,30.04,NE,48,0.0,0.0,98,0.00,,,0.00,0.0,meteohub,2013-08-19 06:26:00,
2013-08-19 02:31:00,75.9,75.4,30.05,NE,48,0.0,0.0,98,0.00,,,0.00,0.0,meteohub,2013-08-19 06:31:00,
2013-08-19 02:36:00,75.7,75.2,30.04,NE,48,0.0,0.0,98,0.00,,,0.00,0.0,meteohub,2013-08-19 06:36:00,
2013-08-19 02:41:00,75.7,75.2,30.04,NE,48,0.0,0.0,98,0.00,,,0.00,0.0,meteohub,2013-08-19 06:41:00,
2013-08-19 02:46:00,75.7,74.8,30.04,NE,48,0.0,0.0,97,0.00,,,0.00,0.0,meteohub,2013-08-19 06:46:00,
2013-08-19 02:51:00,75.7,75.2,30.04,NE,48,0.0,0.0,98,0.00,,,0.00,0.0,meteohub,2013-08-19 06:51:00,
2013-08-19 02:56:00,75.7,75.2,30.04,NE,48,0.0,0.0,98,0.00,,,0.00,0.0,meteohub,2013-08-19 06:56:00,
2013-08-19 03:01:00,75.7,75.2,30.04,NE,48,0.0,0.0,98,0.00,,,0.00,0.0,meteohub,2013-08-19 07:01:00,
2013-08-19 03:06:00,75.6,74.7,30.04,NE,48,0.0,0.0,97,0.00,,,0.00,0.0,meteohub,2013-08-19 07:06:00,
2013-08-19 03:11:00,75.6,74.7,30.04,NE,48,0.0,0.0,97,0.00,,,0.00,0.0,meteohub,2013-08-19 07:11:00,
2013-08-19 03:16:00,75.4,74.5,30.04,NE,48,0.0,0.0,97,0.00,,,0.00,0.0,meteohub,2013-08-19 07:16:00,
2013-08-19 03:21:00,75.4,74.8,30.04,NE,48,0.0,0.0,98,0.00,,,0.00,0.0,meteohub,2013-08-19 07:21:00,
2013-08-19 03:26:00,75.4,74.8,30.04,NE,48,0.0,0.0,98,0.00,,,0.00,0.0,meteohub,2013-08-19 07:26:00,
2013-08-19 03:31:00,75.4,74.8,30.03,NE,48,0.0,0.0,98,0.00,,,0.00,0.0,meteohub,2013-08-19 07:31:00,
2013-08-19 03:36:00,75.2,74.7,30.03,NE,48,0.0,0.0,98,0.00,,,0.00,0.0,meteohub,2013-08-19 07:36:00,
2013-08-19 03:41:00,75.4,74.8,30.03,NE,48,0.0,0.0,98,0.00,,,0.00,0.0,meteohub,2013-08-19 07:41:00,
2013-08-19 03:46:00,75.4,74.8,30.03,NE,48,0.0,0.0,98,0.00,,,0.00,0.0,meteohub,2013-08-19 07:46:00,
2013-08-19 03:51:00,75.4,74.8,30.03,NE,48,0.0,0.0,98,0.00,,,0.00,0.0,meteohub,2013-08-19 07:51:00,
2013-08-19 03:56:00,75.4,74.8,30.03,NE,48,0.0,0.0,98,0.00,,,0.00,0.0,meteohub,2013-08-19 07:56:00,
2013-08-19 04:02:00,75.4,74.8,30.03,NE,48,0.0,0.0,98,0.00,,,0.00,0.0,meteohub,2013-08-19 08:02:00,
2013-08-19 04:07:00,75.6,75.0,30.03,NE,48,0.0,0.0,98,0.00,,,0.00,0.0,meteohub,2013-08-19 08:07:00,
2013-08-19 04:12:00,75.6,75.0,30.03,NE,48,0.0,0.0,98,0.00,,,0.00,0.0,meteohub,2013-08-19 08:12:00,
2013-08-19 04:17:00,75.6,75.0,30.03,NE,48,0.0,0.0,98,0.00,,,0.00,0.0,meteohub,2013-08-19 08:17:00,
2013-08-19 04:22:00,75.4,74.8,30.03,NE,48,0.0,0.0,98,0.00,,,0.00,0.0,meteohub,2013-08-19 08:22:00,
2013-08-19 04:27:00,75.4,74.8,30.03,NE,48,0.0,0.0,98,0.00,,,0.00,0.0,meteohub,2013-08-19 08:27:00,
2013-08-19 04:32:00,75.2,74.7,30.03,NE,48,0.0,0.0,98,0.00,,,0.00,0.0,meteohub,2013-08-19 08:32:00,
2013-08-19 04:37:00,75.0,74.5,30.03,NE,48,0.0,0.0,98,0.00,,,0.00,0.0,meteohub,2013-08-19 08:37:00,
2013-08-19 04:42:00,75.0,74.5,30.02,NE,48,0.0,0.0,98,0.00,,,0.00,0.0,meteohub,2013-08-19 08:42:00,
2013-08-19 04:47:00,74.8,74.3,30.02,NE,48,0.0,0.0,98,0.00,,,0.00,0.0,meteohub,2013-08-19 08:47:00,
2013-08-19 04:52:00,74.8,74.3,30.02,NE,48,0.0,0.0,98,0.00,,,0.00,0.0,meteohub,2013-08-19 08:52:00,
2013-08-19 04:57:00,74.8,74.3,30.01,NE,48,0.0,0.0,98,0.00,,,0.00,0.0,meteohub,2013-08-19 08:57:00,
2013-08-19 05:02:00,74.8,74.3,30.01,NE,48,0.0,0.0,98,0.00,,,0.00,0.0,meteohub,2013-08-19 09:02:00,
2013-08-19 05:07:00,74.8,74.3,30.01,NE,48,0.0,0.0,98,0.00,,,0.00,0.0,meteohub,2013-08-19 09:07:00,
2013-08-19 05:12:00,75.0,74.5,30.01,NE,48,0.0,0.0,98,0.00,,,0.00,0.0,meteohub,2013-08-19 09:12:00,
2013-08-19 05:17:00,75.0,74.5,30.01,NE,48,0.0,0.0,98,0.00,,,0.00,0.0,meteohub,2013-08-19 09:17:00,
2013-08-19 05:22:00,75.0,74.5,30.01,NE,48,0.0,0.0,98,0.00,,,0.00,0.0,meteohub,2013-08-19 09:22:00,
2013-08-19 05:27:00,75.2,74.7,30.01,NE,48,0.0,0.0,98,0.00,,,0.00,0.0,meteohub,2013-08-19 09:27:00,
2013-08-19 05:32:00,75.2,74.7,30.01,NE,48,0.0,0.0,98,0.00,,,0.00,0.0,meteohub,2013-08-19 09:32:00,
2013-08-19 05:37:00,75.0,74.5,30.01,NE,48,0.0,0.0,98,0.00,,,0.00,0.0,meteohub,2013-08-19 09:37:00,
2013-08-19 05:42:00,75.0,74.5,30.01,NE,48,0.0,0.0,98,0.00,,,0.00,0.0,meteohub,2013-08-19 09:42:00,
2013-08-19 05:47:00,75.0,74.5,30.01,NE,48,0.0,0.0,98,0.00,,,0.00,0.0,meteohub,2013-08-19 09:47:00,
2013-08-19 05:52:00,75.2,74.7,30.02,NE,48,0.0,0.0,98,0.00,,,0.00,0.0,meteohub,2013-08-19 09:52:00,
2013-08-19 05:57:00,75.2,74.7,30.02,NE,48,0.0,0.0,98,0.00,,,0.00,0.0,meteohub,2013-08-19 09:57:00,
2013-08-19 06:02:00,75.0,74.5,30.02,NE,48,0.0,0.0,98,0.00,,,0.00,0.0,meteohub,2013-08-19 10:02:00,
2013-08-19 06:07:00,75.0,74.5,30.02,NE,48,0.0,0.0,98,0.00,,,0.00,0.0,meteohub,2013-08-19 10:07:00,
2013-08-19 06:11:00,74.8,74.3,30.02,NE,48,0.0,0.0,98,0.00,,,0.00,0.0,meteohub,2013-08-19 10:11:00,
2013-08-19 06:17:00,74.8,74.3,30.02,NE,48,0.0,0.0,98,0.00,,,0.00,0.0,meteohub,2013-08-19 10:17:00,
2013-08-19 06:22:00,74.8,74.3,30.02,NE,48,0.0,0.0,98,0.00,,,0.00,0.0,meteohub,2013-08-19 10:22:00,
2013-08-19 06:27:00,74.8,74.3,30.02,NE,48,0.0,0.0,98,0.00,,,0.00,0.0,meteohub,2013-08-19 10:27:00,
2013-08-19 06:32:00,74.8,74.3,30.02,NE,48,0.0,0.0,98,0.00,,,0.00,0.0,meteohub,2013-08-19 10:32:00,
2013-08-19 06:37:00,74.8,74.3,30.02,NE,48,0.0,0.0,98,0.00,,,0.00,0.0,meteohub,2013-08-19 10:37:00,
2013-08-19 06:42:00,74.8,74.3,30.02,NE,48,0.0,0.0,98,0.00,,,0.00,0.0,meteohub,2013-08-19 10:42:00,
2013-08-19 06:47:00,74.8,74.3,30.02,NE,48,0.0,0.0,98,0.00,,,0.00,0.0,meteohub,2013-08-19 10:47:00,
2013-08-19 06:52:00,74.7,74.1,30.02,NE,48,0.0,0.0,98,0.00,,,0.00,0.0,meteohub,2013-08-19 10:52:00,
2013-08-19 06:57:00,74.7,74.1,30.03,NE,48,0.0,0.0,98,0.00,,,0.00,0.0,meteohub,2013-08-19 10:57:00,
2013-08-19 07:02:00,74.7,74.1,30.03,NE,48,0.0,0.0,98,0.00,,,0.00,5.0,meteohub,2013-08-19 11:02:00,
2013-08-19 07:07:00,74.7,74.1,30.03,NE,48,0.0,0.0,98,0.00,,,0.00,7.0,meteohub,2013-08-19 11:07:00,
2013-08-19 07:12:00,74.7,74.1,30.02,NE,48,0.0,0.0,98,0.00,,,0.00,7.0,meteohub,2013-08-19 11:12:00,
2013-08-19 07:17:00,74.7,74.1,30.02,NE,48,0.0,0.0,98,0.00,,,0.00,9.0,meteohub,2013-08-19 11:17:00,
2013-08-19 07:22:00,74.7,74.1,30.03,NE,48,0.0,0.0,98,0.00,,,0.00,11.0,meteohub,2013-08-19 11:22:00,
2013-08-19 07:27:00,74.7,74.1,30.03,NE,48,0.0,0.0,98,0.00,,,0.00,12.0,meteohub,2013-08-19 11:27:00,
2013-08-19 07:32:00,74.7,74.1,30.03,NE,48,0.0,0.0,98,0.00,,,0.00,23.0,meteohub,2013-08-19 11:32:00,
2013-08-19 07:37:00,74.8,74.3,30.03,NE,48,0.0,0.0,98,0.00,,,0.00,58.0,meteohub,2013-08-19 11:37:00,
2013-08-19 07:42:00,75.4,74.8,30.04,NE,48,0.0,0.0,98,0.00,,,0.00,104.0,meteohub,2013-08-19 11:42:00,
2013-08-19 07:47:00,75.7,75.4,30.04,NE,48,0.0,0.0,99,0.00,,,0.00,69.0,meteohub,2013-08-19 11:47:00,
2013-08-19 07:52:00,75.9,75.6,30.04,NE,48,0.0,0.0,99,0.00,,,0.00,127.0,meteohub,2013-08-19 11:52:00,
2013-08-19 07:57:00,76.5,75.9,30.04,NE,48,0.0,0.0,98,0.00,,,0.00,207.0,meteohub,2013-08-19 11:57:00,
2013-08-19 08:02:00,76.8,76.3,30.04,NE,48,0.0,0.0,98,0.00,,,0.00,234.0,meteohub,2013-08-19 12:02:00,
2013-08-19 08:07:00,77.5,77.0,30.04,NE,48,0.0,0.0,98,0.00,,,0.00,241.0,meteohub,2013-08-19 12:07:00,
2013-08-19 08:12:00,78.3,77.9,30.04,NE,48,0.0,0.0,99,0.00,,,0.00,225.0,meteohub,2013-08-19 12:12:00,
2013-08-19 08:17:00,78.6,78.3,30.04,NE,48,0.0,0.0,99,0.00,,,0.00,237.0,meteohub,2013-08-19 12:17:00,
2013-08-19 08:22:00,79.0,78.4,30.04,NE,48,0.0,0.0,98,0.00,,,0.00,74.0,meteohub,2013-08-19 12:22:00,
2013-08-19 08:26:00,79.2,78.6,30.04,NE,48,0.0,0.0,98,0.00,,,0.00,258.0,meteohub,2013-08-19 12:26:00,
2013-08-19 08:31:00,79.3,78.8,30.04,NE,48,0.0,0.0,98,0.00,,,0.00,265.0,meteohub,2013-08-19 12:31:00,
2013-08-19 08:36:00,79.5,79.0,30.04,NE,48,0.0,0.0,98,0.00,,,0.00,353.0,meteohub,2013-08-19 12:36:00,
2013-08-19 08:41:00,80.2,79.3,30.04,NE,48,0.0,0.0,97,0.00,,,0.00,422.0,meteohub,2013-08-19 12:41:00,
2013-08-19 08:46:00,81.3,80.4,30.04,NE,48,0.0,0.0,97,0.00,,,0.00,455.0,meteohub,2013-08-19 12:46:00,
2013-08-19 08:52:00,82.4,80.8,30.04,NE,48,0.0,0.0,95,0.00,,,0.00,109.0,meteohub,2013-08-19 12:52:00,
2013-08-19 08:57:00,82.6,80.4,30.04,NE,48,0.0,0.0,93,0.00,,,0.00,58.0,meteohub,2013-08-19 12:57:00,
2013-08-19 09:02:00,82.0,79.5,30.04,SE,136,0.0,3.0,92,0.00,,,0.00,44.0,meteohub,2013-08-19 13:02:00,
2013-08-19 09:07:00,81.7,79.2,30.05,ESE,110,0.0,3.0,92,0.00,,,0.00,54.0,meteohub,2013-08-19 13:07:00,
2013-08-19 09:12:00,81.0,77.0,30.05,SSE,165,6.0,6.0,88,0.00,,,0.00,90.0,meteohub,2013-08-19 13:12:00,
2013-08-19 09:17:00,80.4,76.5,30.05,ESE,110,0.0,6.0,88,0.00,,,0.00,141.0,meteohub,2013-08-19 13:17:00,
2013-08-19 09:22:00,80.4,76.5,30.05,ESE,110,0.0,6.0,88,0.00,,,0.00,308.0,meteohub,2013-08-19 13:22:00,
2013-08-19 09:27:00,80.8,76.5,30.04,ESE,110,1.0,6.0,87,0.00,,,0.00,621.0,meteohub,2013-08-19 13:27:00,
2013-08-19 09:32:00,81.7,76.6,30.04,SE,146,0.0,2.0,85,0.00,,,0.00,650.0,meteohub,2013-08-19 13:32:00,
2013-08-19 09:37:00,82.9,77.2,30.04,SE,146,0.0,5.0,83,0.00,,,0.00,686.0,meteohub,2013-08-19 13:37:00,
2013-08-19 09:41:00,83.7,76.8,30.05,SSE,155,0.0,5.0,80,0.00,,,0.00,534.0,meteohub,2013-08-19 13:41:00,
2013-08-19 09:46:00,84.0,77.5,30.04,SSE,155,0.0,4.0,81,0.00,,,0.00,650.0,meteohub,2013-08-19 13:46:00,
2013-08-19 09:51:00,84.7,77.9,30.05,SE,144,0.0,2.0,80,0.00,,,0.00,624.0,meteohub,2013-08-19 13:51:00,
2013-08-19 09:56:00,85.3,78.4,30.05,SSW,203,0.0,3.0,80,0.00,,,0.00,626.0,meteohub,2013-08-19 13:56:00,
2013-08-19 10:01:00,85.5,78.3,30.04,South,180,0.0,5.0,79,0.00,,,0.00,635.0,meteohub,2013-08-19 14:01:00,
2013-08-19 10:06:00,85.6,78.4,30.04,SE,140,0.0,5.0,79,0.00,,,0.00,622.0,meteohub,2013-08-19 14:06:00,
2013-08-19 10:11:00,85.6,78.8,30.04,SE,140,1.0,5.0,80,0.00,,,0.00,628.0,meteohub,2013-08-19 14:11:00,
2013-08-19 10:16:00,85.8,79.7,30.04,SE,134,0.0,4.0,82,0.00,,,0.00,645.0,meteohub,2013-08-19 14:16:00,
2013-08-19 10:21:00,86.0,78.8,30.04,SE,144,2.0,4.0,79,0.00,,,0.00,294.0,meteohub,2013-08-19 14:21:00,
2013-08-19 10:27:00,85.6,78.4,30.05,SSE,152,4.0,4.0,79,0.00,,,0.00,199.0,meteohub,2013-08-19 14:27:00,
2013-08-19 10:31:00,85.3,78.1,30.05,SSE,149,7.0,7.0,79,0.00,,,0.00,171.0,meteohub,2013-08-19 14:31:00,
2013-08-19 10:36:00,84.7,77.9,30.05,SSE,148,0.0,7.0,80,0.00,,,0.00,522.0,meteohub,2013-08-19 14:36:00,
2013-08-19 10:42:00,84.7,77.9,30.05,SSE,153,0.0,7.0,80,0.00,,,0.00,849.0,meteohub,2013-08-19 14:42:00,
2013-08-19 10:47:00,85.3,78.1,30.05,East,88,0.0,7.0,79,0.00,,,0.00,234.0,meteohub,2013-08-19 14:47:00,
2013-08-19 10:52:00,85.5,78.3,30.05,South,177,0.0,7.0,79,0.00,,,0.00,905.0,meteohub,2013-08-19 14:52:00,
2013-08-19 10:57:00,86.4,78.6,30.05,East,86,0.0,7.0,78,0.00,,,0.00,909.0,meteohub,2013-08-19 14:57:00,
2013-08-19 11:02:00,86.9,78.4,30.05,SSE,152,0.0,7.0,76,0.00,,,0.00,909.0,meteohub,2013-08-19 15:02:00,
2013-08-19 11:07:00,87.4,78.1,30.05,ESE,104,3.0,7.0,74,0.00,,,0.00,900.0,meteohub,2013-08-19 15:07:00,
2013-08-19 11:12:00,87.6,78.6,30.04,SE,126,1.0,7.0,75,0.00,,,0.00,942.0,meteohub,2013-08-19 15:12:00,
2013-08-19 11:17:00,88.0,78.6,30.05,East,97,6.0,7.0,74,0.00,,,0.00,1011.0,meteohub,2013-08-19 15:17:00,
2013-08-19 11:22:00,88.2,79.7,30.05,SE,140,3.0,7.0,76,0.00,,,0.00,1004.0,meteohub,2013-08-19 15:22:00,
2013-08-19 11:27:00,88.3,78.6,30.05,SSE,163,0.0,7.0,73,0.00,,,0.00,954.0,meteohub,2013-08-19 15:27:00,
2013-08-19 11:32:00,88.3,78.6,30.05,SSE,149,0.0,7.0,73,0.00,,,0.00,976.0,meteohub,2013-08-19 15:32:00,
2013-08-19 11:37:00,88.5,78.8,30.05,SE,142,1.0,8.0,73,0.00,,,0.00,947.0,meteohub,2013-08-19 15:37:00,
2013-08-19 11:42:00,88.5,78.3,30.05,SSE,167,1.0,8.0,72,0.00,,,0.00,983.0,meteohub,2013-08-19 15:42:00,
2013-08-19 11:47:00,88.3,79.0,30.04,South,171,0.0,8.0,74,0.00,,,0.00,993.0,meteohub,2013-08-19 15:47:00,
2013-08-19 11:52:00,88.5,79.2,30.04,SE,136,0.0,8.0,74,0.00,,,0.00,993.0,meteohub,2013-08-19 15:52:00,
2013-08-19 11:57:00,88.9,79.2,30.04,South,191,4.0,8.0,73,0.00,,,0.00,981.0,meteohub,2013-08-19 15:57:00,
2013-08-19 12:02:00,88.7,78.4,30.04,ENE,68,3.0,7.0,72,0.00,,,0.00,977.0,meteohub,2013-08-19 16:02:00,
2013-08-19 12:07:00,88.5,78.3,30.04,East,79,1.0,7.0,72,0.00,,,0.00,954.0,meteohub,2013-08-19 16:07:00,
2013-08-19 12:12:00,88.7,78.1,30.04,South,171,3.0,9.0,71,0.00,,,0.00,953.0,meteohub,2013-08-19 16:12:00,
2013-08-19 12:17:00,88.7,78.1,30.04,East,91,5.0,9.0,71,0.00,,,0.00,925.0,meteohub,2013-08-19 16:17:00,
2013-08-19 12:22:00,88.5,77.9,30.04,South,179,5.0,7.0,71,0.00,,,0.00,889.0,meteohub,2013-08-19 16:22:00,
2013-08-19 12:27:00,88.5,78.3,30.04,SE,146,1.0,7.0,72,0.00,,,0.00,956.0,meteohub,2013-08-19 16:27:00,
2013-08-19 12:32:00,88.3,78.1,30.04,ESE,121,1.0,9.0,72,0.00,,,0.00,940.0,meteohub,2013-08-19 16:32:00,
2013-08-19 12:37:00,88.5,77.9,30.04,SE,146,2.0,9.0,71,0.00,,,0.00,944.0,meteohub,2013-08-19 16:37:00,
2013-08-19 12:42:00,88.5,78.3,30.04,SSW,198,0.0,8.0,72,0.00,,,0.00,972.0,meteohub,2013-08-19 16:42:00,
2013-08-19 12:47:00,89.1,80.4,30.04,SW,232,1.0,6.0,76,0.00,,,0.00,998.0,meteohub,2013-08-19 16:47:00,
2013-08-19 12:52:00,89.1,77.5,30.04,ESE,109,0.0,7.0,69,0.00,,,0.00,983.0,meteohub,2013-08-19 16:52:00,
2013-08-19 12:57:00,88.9,77.9,30.04,SE,128,0.0,9.0,70,0.00,,,0.00,991.0,meteohub,2013-08-19 16:57:00,
2013-08-19 13:02:00,88.9,78.3,30.04,East,89,2.0,9.0,71,0.00,,,0.00,1016.0,meteohub,2013-08-19 17:02:00,
2013-08-19 13:07:00,88.7,77.7,30.04,SE,141,4.0,9.0,70,0.00,,,0.00,1025.0,meteohub,2013-08-19 17:07:00,
2013-08-19 13:12:00,88.9,77.9,30.03,SE,130,1.0,8.0,70,0.00,,,0.00,1049.0,meteohub,2013-08-19 17:12:00,
2013-08-19 13:17:00,88.7,78.1,30.03,East,84,0.0,8.0,71,0.00,,,0.00,1023.0,meteohub,2013-08-19 17:17:00,
2013-08-19 13:22:00,88.7,77.7,30.03,SSE,157,1.0,9.0,70,0.00,,,0.00,1055.0,meteohub,2013-08-19 17:22:00,
2013-08-19 13:27:00,88.9,77.4,30.03,ENE,76,5.0,9.0,69,0.00,,,0.00,1005.0,meteohub,2013-08-19 17:27:00,
2013-08-19 13:32:00,88.5,77.5,30.03,South,178,2.0,8.0,70,0.00,,,0.00,1044.0,meteohub,2013-08-19 17:32:00,
2013-08-19 13:37:00,88.5,77.9,30.03,SSW,193,0.0,7.0,71,0.00,,,0.00,1035.0,meteohub,2013-08-19 17:37:00,
2013-08-19 13:42:00,88.7,79.0,30.02,East,91,3.0,7.0,73,0.00,,,0.00,244.0,meteohub,2013-08-19 17:42:00,
2013-08-19 13:47:00,88.9,77.9,30.02,SE,137,0.0,7.0,70,0.00,,,0.00,288.0,meteohub,2013-08-19 17:47:00,
2013-08-19 13:52:00,88.5,78.3,30.02,ESE,102,0.0,8.0,72,0.00,,,0.00,1025.0,meteohub,2013-08-19 17:52:00,
2013-08-19 13:57:00,88.9,77.9,30.02,SSE,160,0.0,8.0,70,0.00,,,0.00,1067.0,meteohub,2013-08-19 17:57:00,
2013-08-19 14:02:00,88.9,78.6,30.02,SW,236,1.0,8.0,72,0.00,,,0.00,1102.0,meteohub,2013-08-19 18:02:00,
2013-08-19 14:07:00,88.9,78.6,30.02,ESE,109,1.0,7.0,72,0.00,,,0.00,404.0,meteohub,2013-08-19 18:07:00,
2013-08-19 14:12:00,88.9,79.5,30.02,SSE,156,4.0,9.0,74,0.00,,,0.00,408.0,meteohub,2013-08-19 18:12:00,
2013-08-19 14:17:00,88.7,79.3,30.02,South,183,0.0,9.0,74,0.00,,,0.00,1063.0,meteohub,2013-08-19 18:17:00,
2013-08-19 14:22:00,88.9,78.3,30.02,SSE,161,6.0,9.0,71,0.00,,,0.00,294.0,meteohub,2013-08-19 18:22:00,
2013-08-19 14:27:00,88.3,78.6,30.02,SSE,162,0.0,9.0,73,0.00,,,0.00,1060.0,meteohub,2013-08-19 18:27:00,
2013-08-19 14:32:00,88.5,79.2,30.02,ESE,114,0.0,12.0,74,0.00,,,0.00,257.0,meteohub,2013-08-19 18:32:00,
2013-08-19 14:37:00,88.5,79.2,30.01,ENE,72,7.0,12.0,74,0.00,,,0.00,278.0,meteohub,2013-08-19 18:37:00,
2013-08-19 14:42:00,87.6,77.9,30.01,SE,145,0.0,11.0,73,0.00,,,0.00,265.0,meteohub,2013-08-19 18:42:00,
2013-08-19 14:47:00,87.6,78.6,30.01,East,87,3.0,11.0,75,0.00,,,0.00,1121.0,meteohub,2013-08-19 18:47:00,
2013-08-19 14:52:00,87.4,77.7,30.01,SE,128,0.0,8.0,73,0.00,,,0.00,236.0,meteohub,2013-08-19 18:52:00,
2013-08-19 14:57:00,87.4,77.7,30.01,ESE,114,0.0,9.0,73,0.00,,,0.00,1046.0,meteohub,2013-08-19 18:57:00,
2013-08-19 15:02:00,87.4,78.1,30.00,SE,142,2.0,9.0,74,0.00,,,0.00,1041.0,meteohub,2013-08-19 19:02:00,
2013-08-19 15:07:00,87.8,77.7,30.00,SE,145,1.0,9.0,72,0.00,,,0.00,352.0,meteohub,2013-08-19 19:07:00,
2013-08-19 15:12:00,87.6,77.9,30.00,South,191,4.0,9.0,73,0.00,,,0.00,236.0,meteohub,2013-08-19 19:12:00,
2013-08-19 15:17:00,87.4,78.1,30.00,SE,129,0.0,8.0,74,0.00,,,0.00,279.0,meteohub,2013-08-19 19:17:00,
2013-08-19 15:23:00,87.4,78.1,29.99,WSW,242,0.0,8.0,74,0.00,,,0.00,1129.0,meteohub,2013-08-19 19:23:00,
2013-08-19 15:28:00,87.1,77.7,30.00,South,175,1.0,7.0,74,0.00,,,0.00,308.0,meteohub,2013-08-19 19:28:00,
2013-08-19 15:33:00,86.9,77.5,29.99,ESE,112,0.0,6.0,74,0.00,,,0.00,1078.0,meteohub,2013-08-19 19:33:00,
2013-08-19 15:38:00,87.4,77.7,29.99,SE,133,0.0,6.0,73,0.00,,,0.00,1035.0,meteohub,2013-08-19 19:38:00,
2013-08-19 15:43:00,88.0,77.9,29.98,South,177,1.0,7.0,72,0.00,,,0.00,921.0,meteohub,2013-08-19 19:43:00,
2013-08-19 15:48:00,88.0,77.4,29.98,ESE,115,0.0,7.0,71,0.00,,,0.00,320.0,meteohub,2013-08-19 19:48:00,
2013-08-19 15:53:00,87.4,77.4,29.98,SSE,167,0.0,7.0,72,0.00,,,0.00,323.0,meteohub,2013-08-19 19:53:00,
2013-08-19 15:58:00,87.3,77.5,29.98,SSE,159,2.0,7.0,73,0.00,,,0.00,557.0,meteohub,2013-08-19 19:58:00,
2013-08-19 16:03:00,87.1,77.7,29.98,East,86,5.0,8.0,74,0.00,,,0.00,468.0,meteohub,2013-08-19 20:03:00,
2013-08-19 16:08:00,87.1,77.7,29.98,SSW,198,0.0,8.0,74,0.00,,,0.00,693.0,meteohub,2013-08-19 20:08:00,
2013-08-19 16:13:00,87.6,77.0,29.97,ESE,114,2.0,10.0,71,0.00,,,0.00,731.0,meteohub,2013-08-19 20:13:00,
2013-08-19 16:18:00,88.0,77.9,29.97,SE,142,2.0,10.0,72,0.00,,,0.00,622.0,meteohub,2013-08-19 20:18:00,
2013-08-19 16:23:00,88.0,77.4,29.97,East,91,0.0,11.0,71,0.00,,,0.00,737.0,meteohub,2013-08-19 20:23:00,
2013-08-19 16:28:00,88.5,77.5,29.97,SSE,160,5.0,11.0,70,0.00,,,0.00,775.0,meteohub,2013-08-19 20:28:00,
2013-08-19 16:33:00,88.5,77.5,29.97,SSE,159,4.0,8.0,70,0.00,,,0.00,768.0,meteohub,2013-08-19 20:33:00,
2013-08-19 16:38:00,88.3,78.1,29.97,South,170,2.0,9.0,72,0.00,,,0.00,719.0,meteohub,2013-08-19 20:38:00,
2013-08-19 16:43:00,88.2,78.4,29.97,ESE,118,0.0,9.0,73,0.00,,,0.00,388.0,meteohub,2013-08-19 20:43:00,
2013-08-19 16:48:00,87.4,78.1,29.97,ESE,102,0.0,9.0,74,0.00,,,0.00,211.0,meteohub,2013-08-19 20:48:00,
2013-08-19 16:53:00,87.1,77.7,29.97,ESE,105,0.0,9.0,74,0.00,,,0.00,482.0,meteohub,2013-08-19 20:53:00,
2013-08-19 16:58:00,86.9,78.1,29.97,ESE,110,0.0,9.0,75,0.00,,,0.00,424.0,meteohub,2013-08-19 20:58:00,
2013-08-19 17:03:00,86.7,77.9,29.97,SW,218,0.0,9.0,75,0.00,,,0.00,290.0,meteohub,2013-08-19 21:03:00,
2013-08-19 17:08:00,86.4,77.0,29.97,ESE,121,4.0,6.0,74,0.00,,,0.00,169.0,meteohub,2013-08-19 21:08:00,
2013-08-19 17:13:00,86.0,77.5,29.97,ESE,121,3.0,8.0,76,0.00,,,0.00,151.0,meteohub,2013-08-19 21:13:00,
2013-08-19 17:18:00,85.8,78.1,29.97,East,98,3.0,8.0,78,0.00,,,0.00,190.0,meteohub,2013-08-19 21:18:00,
2013-08-19 17:23:00,85.5,77.4,29.97,SE,136,1.0,8.0,77,0.00,,,0.00,141.0,meteohub,2013-08-19 21:23:00,
2013-08-19 17:28:00,85.3,77.7,29.97,East,79,0.0,8.0,78,0.00,,,0.00,130.0,meteohub,2013-08-19 21:28:00,
2013-08-19 17:33:00,84.9,77.7,29.97,ESE,119,0.0,7.0,79,0.00,,,0.00,125.0,meteohub,2013-08-19 21:33:00,
2013-08-19 17:38:00,84.7,77.9,29.97,South,180,0.0,7.0,80,0.00,,,0.00,109.0,meteohub,2013-08-19 21:38:00,
2013-08-19 17:43:00,84.7,77.2,29.97,SSE,155,1.0,7.0,78,0.00,,,0.00,93.0,meteohub,2013-08-19 21:43:00,
2013-08-19 17:49:00,84.9,77.4,29.97,ESE,113,0.0,7.0,78,0.00,,,0.00,88.0,meteohub,2013-08-19 21:49:00,
2013-08-19 17:53:00,84.9,77.7,29.97,SSE,161,1.0,7.0,79,0.00,,,0.00,83.0,meteohub,2013-08-19 21:53:00,
2013-08-19 17:59:00,84.7,77.5,29.97,SSE,159,1.0,7.0,79,0.00,,,0.00,79.0,meteohub,2013-08-19 21:59:00,
2013-08-19 18:04:00,84.7,77.9,29.97,South,175,0.0,6.0,80,0.00,,,0.00,102.0,meteohub,2013-08-19 22:04:00,
2013-08-19 18:09:00,84.6,78.1,29.97,East,97,0.0,6.0,81,0.00,,,0.00,65.0,meteohub,2013-08-19 22:09:00,
2013-08-19 18:14:00,84.6,78.1,29.96,SE,137,0.0,6.0,81,0.00,,,0.00,62.0,meteohub,2013-08-19 22:14:00,
2013-08-19 18:19:00,84.4,78.3,29.96,SSE,163,0.0,4.0,82,0.00,,,0.00,53.0,meteohub,2013-08-19 22:19:00,
2013-08-19 18:24:00,84.4,78.3,29.96,ENE,69,0.0,2.0,82,0.00,,,0.00,46.0,meteohub,2013-08-19 22:24:00,
2013-08-19 18:29:00,84.0,77.9,29.96,SE,134,0.0,3.0,82,0.00,,,0.00,40.0,meteohub,2013-08-19 22:29:00,
2013-08-19 18:34:00,83.7,77.9,29.97,SE,133,0.0,4.0,83,0.00,,,0.00,37.0,meteohub,2013-08-19 22:34:00,
2013-08-19 18:39:00,83.1,77.4,29.97,ENE,66,0.0,7.0,83,0.00,,,0.00,33.0,meteohub,2013-08-19 22:39:00,
2013-08-19 18:44:00,82.9,77.5,29.97,ESE,107,0.0,7.0,84,0.00,,,0.00,30.0,meteohub,2013-08-19 22:44:00,
2013-08-19 18:49:00,82.8,77.7,29.98,ESE,107,0.0,7.0,85,0.00,,,0.00,30.0,meteohub,2013-08-19 22:49:00,
2013-08-19 18:54:00,82.8,77.7,29.98,ESE,107,0.0,5.0,85,0.00,,,0.00,18.0,meteohub,2013-08-19 22:54:00,
2013-08-19 18:59:00,82.6,77.5,29.98,ESE,107,0.0,3.0,85,0.00,,,0.00,21.0,meteohub,2013-08-19 22:59:00,
2013-08-19 19:04:00,82.2,77.5,29.98,ESE,109,0.0,1.0,86,0.00,,,0.00,25.0,meteohub,2013-08-19 23:04:00,
2013-08-19 19:09:00,82.2,77.9,29.98,East,80,0.0,1.0,87,0.00,,,0.00,21.0,meteohub,2013-08-19 23:09:00,
2013-08-19 19:14:00,82.0,77.7,29.98,ESE,119,0.0,2.0,87,0.00,,,0.00,19.0,meteohub,2013-08-19 23:14:00,
2013-08-19 19:19:00,82.0,78.1,29.99,SE,142,0.0,2.0,88,0.00,,,0.00,19.0,meteohub,2013-08-19 23:19:00,
2013-08-19 19:24:00,81.9,77.9,29.99,East,86,0.0,4.0,88,0.00,,,0.00,18.0,meteohub,2013-08-19 23:24:00,
2013-08-19 19:29:00,81.7,78.1,29.99,East,96,0.0,4.0,89,0.00,,,0.00,16.0,meteohub,2013-08-19 23:29:00,
2013-08-19 19:34:00,81.7,78.1,29.99,East,96,0.0,3.0,89,0.00,,,0.00,14.0,meteohub,2013-08-19 23:34:00,
2013-08-19 19:39:00,81.5,77.9,29.99,East,96,0.0,4.0,89,0.00,,,0.00,12.0,meteohub,2013-08-19 23:39:00,
2013-08-19 19:44:00,81.3,77.7,29.99,East,96,0.0,4.0,89,0.00,,,0.00,11.0,meteohub,2013-08-19 23:44:00,
2013-08-19 19:49:00,81.3,78.1,29.99,East,96,0.0,1.0,90,0.00,,,0.00,7.0,meteohub,2013-08-19 23:49:00,
2013-08-19 19:54:00,81.1,77.9,29.99,East,96,0.0,1.0,90,0.00,,,0.00,0.0,meteohub,2013-08-19 23:54:00,
2013-08-19 19:59:00,81.1,78.3,29.99,East,96,0.0,1.0,91,0.00,,,0.00,0.0,meteohub,2013-08-19 23:59:00,
2013-08-19 20:04:00,81.0,78.1,29.99,East,96,0.0,1.0,91,0.00,,,0.00,0.0,meteohub,2013-08-20 00:04:00,
2013-08-19 20:09:00,80.8,77.9,29.98,East,96,0.0,1.0,91,0.00,,,0.00,0.0,meteohub,2013-08-20 00:09:00,
2013-08-19 20:14:00,80.4,77.5,29.98,East,96,0.0,0.0,91,0.00,,,0.00,0.0,meteohub,2013-08-20 00:14:00,
2013-08-19 20:19:00,80.4,77.5,29.98,East,96,0.0,0.0,91,0.00,,,0.00,0.0,meteohub,2013-08-20 00:19:00,
2013-08-19 20:24:00,80.2,77.4,29.98,East,96,0.0,0.0,91,0.00,,,0.00,0.0,meteohub,2013-08-20 00:24:00,
2013-08-19 20:29:00,80.2,77.7,29.99,East,96,0.0,1.0,92,0.00,,,0.00,0.0,meteohub,2013-08-20 00:29:00,
2013-08-19 20:34:00,80.1,77.5,29.99,East,96,0.0,1.0,92,0.00,,,0.00,0.0,meteohub,2013-08-20 00:34:00,
2013-08-19 20:39:00,80.1,77.5,29.99,East,96,0.0,1.0,92,0.00,,,0.00,0.0,meteohub,2013-08-20 00:39:00,
2013-08-19 20:44:00,80.1,77.5,30.00,East,96,0.0,0.0,92,0.00,,,0.00,0.0,meteohub,2013-08-20 00:44:00,
2013-08-19 20:49:00,80.1,77.5,30.00,East,96,0.0,0.0,92,0.00,,,0.00,0.0,meteohub,2013-08-20 00:49:00,
2013-08-19 20:54:00,80.1,77.9,30.00,East,96,0.0,0.0,93,0.00,,,0.00,0.0,meteohub,2013-08-20 00:54:00,
2013-08-19 20:59:00,79.7,77.5,30.00,East,96,0.0,0.0,93,0.00,,,0.00,0.0,meteohub,2013-08-20 00:59:00,
2013-08-19 21:04:00,79.3,77.2,30.00,East,96,0.0,0.0,93,0.00,,,0.00,0.0,meteohub,2013-08-20 01:04:00,
2013-08-19 21:09:00,79.3,77.2,30.00,East,96,0.0,0.0,93,0.00,,,0.00,0.0,meteohub,2013-08-20 01:09:00,
2013-08-19 21:14:00,79.2,77.0,30.01,East,96,0.0,0.0,93,0.00,,,0.00,0.0,meteohub,2013-08-20 01:14:00,
2013-08-19 21:19:00,79.2,77.0,30.01,East,96,0.0,0.0,93,0.00,,,0.00,0.0,meteohub,2013-08-20 01:19:00,
2013-08-19 21:24:00,79.0,77.2,30.01,East,96,0.0,0.0,94,0.00,,,0.00,0.0,meteohub,2013-08-20 01:24:00,
2013-08-19 21:29:00,79.0,77.2,30.01,East,96,0.0,0.0,94,0.00,,,0.00,0.0,meteohub,2013-08-20 01:29:00,
2013-08-19 21:34:00,79.0,77.2,30.02,East,96,0.0,0.0,94,0.00,,,0.00,0.0,meteohub,2013-08-20 01:34:00,
2013-08-19 21:39:00,79.0,77.2,30.02,East,96,0.0,0.0,94,0.00,,,0.00,0.0,meteohub,2013-08-20 01:39:00,
2013-08-19 21:44:00,79.0,77.2,30.03,East,96,0.0,0.0,94,0.00,,,0.00,0.0,meteohub,2013-08-20 01:44:00,
2013-08-19 21:49:00,79.0,77.2,30.03,East,96,0.0,0.0,94,0.00,,,0.00,0.0,meteohub,2013-08-20 01:49:00,
2013-08-19 21:54:00,79.2,77.4,30.03,East,96,0.0,0.0,94,0.00,,,0.00,0.0,meteohub,2013-08-20 01:54:00,
2013-08-19 21:59:00,79.5,77.7,30.04,East,96,0.0,0.0,94,0.00,,,0.00,0.0,meteohub,2013-08-20 01:59:00,
2013-08-19 22:04:00,79.5,77.9,30.04,East,96,0.0,0.0,95,0.00,,,0.00,0.0,meteohub,2013-08-20 02:04:00,
2013-08-19 22:09:00,79.3,77.5,30.04,NW,325,0.0,0.0,94,0.00,,,0.00,0.0,meteohub,2013-08-20 02:09:00,
2013-08-19 22:14:00,79.3,77.5,30.04,WNW,296,3.0,3.0,94,0.00,,,0.00,0.0,meteohub,2013-08-20 02:14:00,
2013-08-19 22:19:00,79.3,77.5,30.04,WNW,292,0.0,6.0,94,0.00,,,0.00,0.0,meteohub,2013-08-20 02:19:00,
2013-08-19 22:24:00,79.2,76.3,30.05,West,267,3.0,6.0,91,0.00,,,0.00,0.0,meteohub,2013-08-20 02:24:00,
2013-08-19 22:29:00,78.4,74.7,30.05,West,276,5.0,9.0,88,0.00,,,0.00,0.0,meteohub,2013-08-20 02:29:00,
2013-08-19 22:34:00,78.1,73.6,30.05,WNW,286,4.0,9.0,86,0.00,,,0.00,0.0,meteohub,2013-08-20 02:34:00,
2013-08-19 22:39:00,77.5,72.3,30.05,NW,304,2.0,9.0,84,0.00,,,0.00,0.0,meteohub,2013-08-20 02:39:00,
2013-08-19 22:44:00,77.0,71.8,30.05,WNW,300,2.0,9.0,84,0.00,,,0.00,0.0,meteohub,2013-08-20 02:44:00,
2013-08-19 22:50:00,76.6,71.1,30.06,NW,304,4.0,8.0,83,0.00,,,0.00,0.0,meteohub,2013-08-20 02:50:00,
2013-08-19 22:55:00,76.3,71.1,30.06,WNW,292,0.0,8.0,84,0.00,,,0.00,0.0,meteohub,2013-08-20 02:55:00,
2013-08-19 23:00:00,75.9,70.7,30.06,WNW,295,0.0,8.0,84,0.00,,,0.00,0.0,meteohub,2013-08-20 03:00:00,
2013-08-19 23:05:00,75.7,70.9,30.06,WNW,292,0.0,8.0,85,0.00,,,0.00,0.0,meteohub,2013-08-20 03:05:00,
2013-08-19 23:10:00,75.6,71.1,30.05,WNW,295,0.0,8.0,86,0.00,,,0.00,0.0,meteohub,2013-08-20 03:10:00,
2013-08-19 23:15:00,75.4,70.9,30.06,WNW,296,1.0,5.0,86,0.00,,,0.00,0.0,meteohub,2013-08-20 03:15:00,
2013-08-19 23:20:00,75.2,71.1,30.06,WNW,297,0.0,5.0,87,0.00,,,0.00,0.0,meteohub,2013-08-20 03:20:00,
2013-08-19 23:25:00,75.0,70.9,30.06,WNW,297,0.0,5.0,87,0.00,,,0.00,0.0,meteohub,2013-08-20 03:25:00,
2013-08-19 23:30:00,74.8,71.1,30.06,WNW,297,0.0,3.0,88,0.00,,,0.00,0.0,meteohub,2013-08-20 03:30:00,
2013-08-19 23:35:00,74.8,71.4,30.05,WNW,297,0.0,1.0,89,0.00,,,0.00,0.0,meteohub,2013-08-20 03:35:00,
2013-08-19 23:40:00,74.7,71.6,30.05,WNW,296,0.0,1.0,90,0.01,,,0.01,0.0,meteohub,2013-08-20 03:40:00,
2013-08-19 23:45:00,74.1,71.6,30.05,WNW,296,0.0,1.0,92,0.01,,,0.02,0.0,meteohub,2013-08-20 03:45:00,
2013-08-19 23:50:00,73.9,71.8,30.05,WNW,297,0.0,1.0,93,0.02,,,0.03,0.0,meteohub,2013-08-20 03:50:00,
2013-08-19 23:55:00,73.6,71.4,30.05,WNW,296,0.0,1.0,93,0.03,,,0.03,0.0,meteohub,2013-08-20 03:55:00,